Home > Weather > Ostrava > Past weeks

Flag for Czech Republic Past Weather in Ostrava, Czech Republic — Yesterday and Last 2 Weeks

Now
82 °F

Overcast.


Feels Like: 81 °F
Forecast: 61 / 80 °F
Wind: 6 mph from Southwest

Location: Ostrava / Mosnov

Current Time: May 28, 2016 at 3:59:43 PM

Latest Report: May 28, 2016 at 3:00 PM


Visibility: 19 mi

Pressure: 29.87 "Hg

Humidity: 41%

Dew Point: 55 °F

Location of OstravaLocation

Past Weather in Ostrava — Graph

°F

Ostrava Temperature Yesterday

Maximum temperature yesterday: 77 °F (at 5:00 PM)
Minimum temperature yesterday: 48 °F (at 6:00 AM)
Average temperature yesterday: 63 °F

High & Low Weather Summary for the Past Weeks

 TemperatureHumidityPressure
High83 °F (May 28, 2:00 PM)100% (May 27, 3:00 AM)30.13 "Hg (May 27, 3:00 AM)
Low38 °F (May 16, 3:00 AM)27% (May 23, 1:00 PM)29.38 "Hg (May 13, 2:00 PM)
Average58 °F68%29.91 "Hg
* Reported May 13 2:00 PM — May 28 2:00 PM, Ostrava, Weather by CustomWeather, © 2016

Note: Actual official high and low records may vary slightly from our data, if they occured in-between our weather recording intervals... More about our weather records

Advertising

Ostrava Weather History for the Previous 24 Hours

Scroll right to see more
 ConditionsComfort  
Time TempWeatherWind HumidityBarometerVisibility
2:00 PM
Sat, May 28
83 °FPartly sunny.5 mph41%29.88 "Hg22 mi
1:00 PM82 °FPartly sunny.5 mph44%29.90 "Hg25 mi
12:00 PM78 °FScattered clouds.N/A54%29.92 "Hg25 mi
11:00 AM76 °FScattered clouds.N/A58%29.93 "Hg25 mi
10:00 AM70 °FScattered clouds.N/A68%29.96 "Hg25 mi
9:00 AM67 °FPartly sunny.1 mph72%29.97 "Hg25 mi
8:00 AM65 °FOvercast.N/A79%29.97 "Hg22 mi
7:00 AM61 °FOvercast.1 mph93%29.98 "Hg16 mi
6:00 AM59 °FPartly sunny.1 mph98%29.98 "Hg7 mi
5:00 AM58 °FPartly sunny.N/A98%29.98 "Hg7 mi
4:00 AM59 °FPassing clouds.1 mph94%29.99 "Hg9 mi
3:00 AM62 °FOvercast.N/A86%29.99 "Hg9 mi
2:00 AM60 °FThunderstorms. Passing clouds.3 mph94%30.00 "Hg9 mi
1:00 AM61 °FThunderstorms. Overcast.N/A90%29.99 "Hg12 mi
12:00 AM60 °FPassing clouds.N/A90%30.00 "Hg12 mi
11:00 PM
Fri, May 27
62 °FPassing clouds.N/A85%29.99 "Hg12 mi
10:00 PM63 °FThunderstorms. Passing clouds.5 mph83%30.00 "Hg12 mi
9:00 PM68 °FThunderstorms. Overcast.N/A66%29.98 "Hg12 mi
8:00 PM69 °FOvercast.N/A65%29.97 "Hg16 mi
7:00 PM72 °FOvercast.3 mph58%29.97 "Hg16 mi
6:00 PM76 °FOvercast.2 mph46%29.95 "Hg16 mi
5:00 PM77 °FPartly sunny.N/A43%29.96 "Hg19 mi
4:00 PM77 °FPartly sunny.N/A44%29.96 "Hg19 mi
3:00 PM77 °FScattered clouds.N/A42%29.97 "Hg19 mi
Weather by CustomWeather, © 2016

See weather overviewHow to use our weather pages